30.06.2024;16:00;38
30.06.2024;15:00;48
30.06.2024;14:00;48
30.06.2024;13:00;39
30.06.2024;12:00;40
30.06.2024;11:00;34
30.06.2024;10:00;29
30.06.2024;09:00;23
30.06.2024;08:00;14
30.06.2024;07:00;21
30.06.2024;06:00;14
30.06.2024;05:00;13
30.06.2024;04:00;30
30.06.2024;03:00;47
30.06.2024;02:00;62
30.06.2024;01:00;55
30.06.2024;00:00;62
29.06.2024;23:00;29
29.06.2024;22:00;27
29.06.2024;21:00;29
29.06.2024;20:00;20
29.06.2024;19:00;20
29.06.2024;18:00;20
29.06.2024;17:00;25
29.06.2024;16:00;17
29.06.2024;15:00;15
29.06.2024;14:00;13
29.06.2024;13:00;14
29.06.2024;12:00;19
29.06.2024;11:00;30
29.06.2024;10:00;28
29.06.2024;09:00;39
29.06.2024;08:00;37
29.06.2024;07:00;44
29.06.2024;06:00;37
29.06.2024;05:00;31
29.06.2024;04:00;35
29.06.2024;03:00;56
29.06.2024;02:00;63
29.06.2024;01:00;81
29.06.2024;00:00;87
28.06.2024;23:00;96
28.06.2024;22:00;71
28.06.2024;21:00;56
28.06.2024;20:00;76
28.06.2024;19:00;88
28.06.2024;18:00;86
28.06.2024;17:00;75
